Flag for Germany Weather past 2 weeks in Riesa, Saxony, Germany

Now
59 °F

Passing clouds.


Feels Like: 59 °F
Forecast: 55 / 74 °F
Wind: 2 mph from South

Location: Dresden-Klotzsche

Current Time: Aug 28, 2014 at 11:20:39 AM

Latest Report: Aug 28, 2014 at 10:00 AM


Visibility: 25 mi

Pressure: 30.11 "Hg

Humidity: 71%

Dew point: 50 °F

Location of RiesaLocation

Historic Weather in Riesa — Graph

°F

Riesa temperature yesterday

Maximum temperature yesterday: 65 °F (at 6:00 PM)
Minimum temperature yesterday: 50 °F (at 4:00 AM)
Average temperature yesterday: 57 °F

Past Weeks' High & Low Weather Summary

 TemperatureHumidityPressure
High71 °F (Aug 14, 4:00 PM)98% (Aug 27, 7:00 AM)30.11 "Hg (Aug 27, 7:00 AM)
Low46 °F (Aug 25, 4:00 AM)36% (Aug 22, 3:00 PM)29.65 "Hg (Aug 13, 7:00 PM)
Average58 °F72%29.91 "Hg
* Reported Aug 13 10:00 AM — Aug 28 10:00 AM, Riesa, Weather by CustomWeather, © 2014

Note: Actual official high and low records may vary slightly from our data, if they occured in-between our weather recording intervals... More about our weather records

Advertising

Riesa weather history for previous 24 hours

 ConditionsComfort  
Time TempWeatherWind HumidityBarometerVisibility
10:00 AM
Aug 28
59 °FPassing clouds.2 mph71%30.11 "Hg25 mi
9:00 AM54 °FPassing clouds.3 mph76%30.11 "Hg25 mi
8:00 AM50 °FPassing clouds.3 mph85%30.10 "Hg28 mi
7:00 AM47 °FPassing clouds.5 mph92%30.11 "Hg28 mi
6:00 AM47 °FPassing clouds.5 mph90%30.09 "Hg28 mi
4:00 AM49 °FPassing clouds.3 mph86%30.09 "Hg28 mi
3:00 AM50 °FPassing clouds.3 mph84%30.08 "Hg28 mi
2:00 AM51 °FClear.3 mph82%30.08 "Hg28 mi
1:00 AM51 °FPassing clouds.5 mph83%30.07 "Hg31 mi
12:00 AM55 °FClear.2 mph71%30.06 "Hg31 mi
11:00 PM
Aug 27
56 °FPassing clouds.1 mph66%30.06 "Hg31 mi
10:00 PM58 °FPassing clouds.2 mph61%30.05 "Hg31 mi
9:00 PM60 °FPassing clouds.2 mph58%30.04 "Hg31 mi
8:00 PM62 °FPassing clouds.2 mph56%30.02 "Hg34 mi
7:00 PM64 °FPassing clouds.3 mph50%29.99 "Hg31 mi
6:00 PM65 °FPartly sunny.6 mph52%29.98 "Hg28 mi
4:00 PM64 °FScattered clouds.3 mph60%29.98 "Hg28 mi
3:00 PM64 °FPartly sunny.5 mph56%29.97 "Hg25 mi
2:00 PM63 °FPartly sunny.6 mph62%29.97 "Hg25 mi
1:00 PM62 °FPartly sunny.3 mph64%29.97 "Hg22 mi
Weather by CustomWeather, © 2014

See weather overviewHow to use our weather pages